CPA939 VHHH-RPLL

Flight info

Callsign CPA939
Flight time 1h 33m
Altitude 33000
Route DALO1X/07R DALOL V642 NOMAN A461 AVMUP W16 TADEL TADE3R/06
Aircraft A359/H-SDE2E3GHIJ1J3J4J5LM1ORWXYZ/LB1D1

Departure

Time 2026-05-05 13:26
Airport Hong Kong International Airport (VHHH)

Arrival

Time 2026-05-05 14:59
Airport Ninoy Aquino International Airport (RPLL)
Time Latitude Longitude Altitude Speed Heading
2026-05-05 13:01 22.31223 113.91605 36 ft 0 kts 72°
2026-05-05 13:12 22.31222 113.91603 37 ft 1 kts 80°
2026-05-05 13:12 22.31223 113.91590 37 ft 2 kts 100°
2026-05-05 13:13 22.31226 113.91575 37 ft 2 kts 103°
2026-05-05 13:13 22.31227 113.91559 37 ft 2 kts 75°
2026-05-05 13:13 22.31222 113.91544 37 ft 2 kts 68°
2026-05-05 13:13 22.31217 113.91528 37 ft 2 kts 76°
2026-05-05 13:14 22.31216 113.91513 37 ft 2 kts 104°
2026-05-05 13:14 22.31221 113.91499 37 ft 2 kts 125°
2026-05-05 13:14 22.31231 113.91488 37 ft 2 kts 147°
2026-05-05 13:14 22.31239 113.91483 37 ft 0 kts 161°
2026-05-05 13:15 22.31242 113.91482 37 ft 0 kts 161°
2026-05-05 13:17 22.31241 113.91482 37 ft 0 kts 161°
2026-05-05 13:17 22.31217 113.91492 36 ft 7 kts 160°
2026-05-05 13:18 22.31158 113.91514 37 ft 10 kts 161°
2026-05-05 13:18 22.31077 113.91544 36 ft 14 kts 160°
2026-05-05 13:18 22.30992 113.91576 36 ft 13 kts 161°
2026-05-05 13:18 22.30907 113.91608 36 ft 16 kts 161°
2026-05-05 13:19 22.30805 113.91646 36 ft 14 kts 161°
2026-05-05 13:19 22.30714 113.91679 36 ft 15 kts 160°
2026-05-05 13:19 22.30615 113.91718 37 ft 14 kts 160°
2026-05-05 13:19 22.30545 113.91728 37 ft 9 kts 196°
2026-05-05 13:20 22.30501 113.91658 36 ft 14 kts 248°
2026-05-05 13:20 22.30463 113.91544 37 ft 17 kts 251°
2026-05-05 13:20 22.30430 113.91439 37 ft 17 kts 250°
2026-05-05 13:20 22.30386 113.91303 37 ft 22 kts 251°
2026-05-05 13:21 22.30335 113.91147 37 ft 23 kts 251°
2026-05-05 13:21 22.30287 113.90994 37 ft 19 kts 251°
2026-05-05 13:21 22.30238 113.90844 37 ft 22 kts 250°
2026-05-05 13:21 22.30183 113.90674 36 ft 24 kts 251°
2026-05-05 13:22 22.30134 113.90522 36 ft 21 kts 251°
2026-05-05 13:22 22.30089 113.90382 37 ft 20 kts 250°
2026-05-05 13:22 22.30040 113.90229 37 ft 23 kts 251°
2026-05-05 13:22 22.29985 113.90061 36 ft 22 kts 251°
2026-05-05 13:23 22.29937 113.89909 36 ft 18 kts 250°
2026-05-05 13:23 22.29898 113.89791 37 ft 15 kts 250°
2026-05-05 13:23 22.29851 113.89738 36 ft 5 kts 187°
2026-05-05 13:23 22.29787 113.89748 37 ft 12 kts 164°
2026-05-05 13:24 22.29711 113.89776 36 ft 11 kts 161°
2026-05-05 13:24 22.29641 113.89805 37 ft 9 kts 143°
2026-05-05 13:24 22.29629 113.89850 36 ft 8 kts 79°
2026-05-05 13:24 22.29650 113.89899 36 ft 8 kts 69°
2026-05-05 13:25 22.29672 113.89962 36 ft 12 kts 71°
2026-05-05 13:25 22.29742 113.90178 37 ft 64 kts 71°
2026-05-05 13:25 22.29983 113.90910 37 ft 132 kts 71°
2026-05-05 13:25 22.30301 113.91943 113 ft 172 kts 73°
2026-05-05 13:26 22.30663 113.93110 958 ft 163 kts 71°
2026-05-05 13:26 22.31019 113.94212 1649 ft 163 kts 71°
2026-05-05 13:26 22.31389 113.95350 2129 ft 169 kts 70°
2026-05-05 13:26 22.31779 113.96553 2449 ft 185 kts 70°
2026-05-05 13:27 22.32218 113.97907 2849 ft 202 kts 70°
2026-05-05 13:27 22.32666 113.99297 3339 ft 213 kts 70°
2026-05-05 13:27 22.33145 114.00787 4023 ft 217 kts 70°
2026-05-05 13:27 22.33613 114.02248 4685 ft 220 kts 71°
2026-05-05 13:28 22.33848 114.03852 5402 ft 225 kts 90°
2026-05-05 13:28 22.33559 114.05468 6110 ft 230 kts 110°
2026-05-05 13:28 22.32762 114.06914 6804 ft 237 kts 130°
2026-05-05 13:28 22.31490 114.08046 7468 ft 246 kts 149°
2026-05-05 13:29 22.29896 114.08730 7941 ft 262 kts 168°
2026-05-05 13:29 22.28117 114.08880 8529 ft 272 kts 180°
2026-05-05 13:29 22.26272 114.08907 9003 ft 288 kts 171°
2026-05-05 13:29 22.24478 114.09729 9533 ft 298 kts 139°
2026-05-05 13:30 22.23177 114.11394 10327 ft 299 kts 122°
2026-05-05 13:30 22.22115 114.13277 10890 ft 311 kts 120°
2026-05-05 13:30 22.20993 114.15273 11308 ft 327 kts 121°
2026-05-05 13:30 22.19778 114.17301 11698 ft 343 kts 123°
2026-05-05 13:31 22.18428 114.19439 12074 ft 359 kts 124°
2026-05-05 13:31 22.17005 114.21613 12415 ft 375 kts 125°
2026-05-05 13:31 22.15476 114.23904 12732 ft 391 kts 125°
2026-05-05 13:31 22.13908 114.26227 13059 ft 405 kts 126°
2026-05-05 13:32 22.12248 114.28672 13629 ft 412 kts 126°
2026-05-05 13:32 22.10541 114.31177 14317 ft 415 kts 126°
2026-05-05 13:32 22.08815 114.33707 14983 ft 419 kts 126°
2026-05-05 13:32 22.07081 114.36246 15614 ft 423 kts 126°
2026-05-05 13:33 22.05339 114.38792 16230 ft 426 kts 126°
2026-05-05 13:33 22.03559 114.41395 16840 ft 430 kts 126°
2026-05-05 13:33 22.01774 114.44003 17433 ft 433 kts 126°
2026-05-05 13:33 21.99996 114.46600 18006 ft 437 kts 126°
2026-05-05 13:34 21.98175 114.49257 18572 ft 440 kts 126°
2026-05-05 13:34 21.96333 114.51943 19126 ft 444 kts 126°
2026-05-05 13:34 21.94507 114.54606 19660 ft 447 kts 125°
2026-05-05 13:34 21.92662 114.57295 20185 ft 450 kts 125°
2026-05-05 13:35 21.90754 114.60074 20712 ft 453 kts 125°
2026-05-05 13:35 21.88894 114.62777 21211 ft 457 kts 126°
2026-05-05 13:35 21.86993 114.65520 21703 ft 460 kts 126°
2026-05-05 13:35 21.85073 114.68302 22190 ft 463 kts 126°
2026-05-05 13:36 21.83176 114.71061 22657 ft 466 kts 126°
2026-05-05 13:36 21.81226 114.73896 23124 ft 469 kts 126°
2026-05-05 13:36 21.79306 114.76688 23569 ft 471 kts 126°
2026-05-05 13:36 21.77353 114.79523 24003 ft 474 kts 126°
2026-05-05 13:37 21.75377 114.82390 24426 ft 477 kts 126°
2026-05-05 13:37 21.73412 114.85239 24830 ft 479 kts 126°
2026-05-05 13:37 21.71450 114.88082 25216 ft 482 kts 126°
2026-05-05 13:37 21.69457 114.90968 25593 ft 484 kts 126°
2026-05-05 13:38 21.67470 114.93845 25954 ft 487 kts 126°
2026-05-05 13:38 21.65533 114.96647 26292 ft 489 kts 125°
2026-05-05 13:38 21.63532 114.99539 26632 ft 491 kts 125°
2026-05-05 13:38 21.61497 115.02479 26973 ft 493 kts 125°
2026-05-05 13:39 21.59448 115.05437 27310 ft 494 kts 125°
2026-05-05 13:39 21.57406 115.08385 27639 ft 496 kts 125°
2026-05-05 13:39 21.55328 115.11384 27968 ft 497 kts 125°
2026-05-05 13:39 21.53265 115.14359 28286 ft 498 kts 125°
2026-05-05 13:40 21.51170 115.17340 28599 ft 500 kts 126°
2026-05-05 13:40 21.49049 115.20322 28908 ft 500 kts 126°
2026-05-05 13:40 21.46949 115.23264 29293 ft 499 kts 126°
2026-05-05 13:40 21.44840 115.26218 29732 ft 497 kts 126°
2026-05-05 13:41 21.42726 115.29179 30153 ft 495 kts 126°
2026-05-05 13:41 21.40632 115.32114 30542 ft 493 kts 126°
2026-05-05 13:41 21.38537 115.35050 30914 ft 492 kts 126°
2026-05-05 13:41 21.36451 115.37972 31272 ft 491 kts 126°
2026-05-05 13:42 21.34382 115.40870 31580 ft 491 kts 126°
2026-05-05 13:42 21.32303 115.43781 31841 ft 492 kts 126°
2026-05-05 13:42 21.30226 115.46688 32081 ft 493 kts 126°
2026-05-05 13:42 21.28120 115.49634 32322 ft 494 kts 126°
2026-05-05 13:43 21.26021 115.52568 32558 ft 494 kts 126°
2026-05-05 13:43 21.23921 115.55504 32790 ft 495 kts 126°
2026-05-05 13:43 21.21843 115.58405 32971 ft 496 kts 126°
2026-05-05 13:43 21.19739 115.61342 32992 ft 497 kts 126°
2026-05-05 13:44 21.15518 115.67235 32999 ft 497 kts 126°
2026-05-05 13:44 21.11320 115.73112 33001 ft 497 kts 126°
2026-05-05 13:45 21.07102 115.78996 33001 ft 497 kts 126°
2026-05-05 13:45 21.02925 115.84804 33001 ft 498 kts 126°
2026-05-05 13:46 20.98679 115.90698 33001 ft 499 kts 127°
2026-05-05 13:46 20.94438 115.96574 33001 ft 499 kts 127°
2026-05-05 13:47 20.90125 116.02418 33005 ft 500 kts 129°
2026-05-05 13:47 20.85369 116.07828 33008 ft 500 kts 135°
2026-05-05 13:48 20.80099 116.12721 33009 ft 501 kts 141°
2026-05-05 13:48 20.75380 116.16351 33006 ft 502 kts 146°
2026-05-05 13:49 20.69205 116.20539 33005 ft 502 kts 147°
2026-05-05 13:49 20.63331 116.24497 33007 ft 502 kts 147°
2026-05-05 13:50 20.57474 116.28454 33013 ft 502 kts 146°
2026-05-05 13:50 20.51670 116.32376 33019 ft 502 kts 146°
2026-05-05 13:51 20.45830 116.36321 33027 ft 502 kts 146°
2026-05-05 13:51 20.40002 116.40255 33032 ft 502 kts 146°
2026-05-05 13:52 20.34124 116.44220 33030 ft 502 kts 146°
2026-05-05 13:52 20.28296 116.48148 33024 ft 502 kts 146°
2026-05-05 13:53 20.22604 116.51981 33022 ft 502 kts 146°
2026-05-05 13:53 20.16750 116.55921 33024 ft 502 kts 146°
2026-05-05 13:54 20.10945 116.59825 33029 ft 502 kts 146°
2026-05-05 13:54 20.05198 116.63775 33036 ft 501 kts 144°
2026-05-05 13:55 19.99730 116.68258 33043 ft 501 kts 138°
2026-05-05 13:55 19.94781 116.73240 33046 ft 500 kts 133°
2026-05-05 13:56 19.90150 116.78600 33046 ft 499 kts 131°
2026-05-05 13:56 19.85528 116.83959 33044 ft 500 kts 131°
2026-05-05 13:57 19.80935 116.89265 33046 ft 499 kts 131°
2026-05-05 13:57 19.76287 116.94635 33049 ft 496 kts 131°
2026-05-05 13:58 19.71870 116.99741 33044 ft 491 kts 131°
2026-05-05 13:58 19.67326 117.04996 33026 ft 486 kts 132°
2026-05-05 13:59 19.60583 117.12786 32981 ft 481 kts 133°
2026-05-05 14:00 19.54609 117.19662 32947 ft 481 kts 133°
2026-05-05 14:00 19.49358 117.25701 32931 ft 481 kts 133°
2026-05-05 14:01 19.44885 117.30844 32924 ft 481 kts 133°
2026-05-05 14:01 19.40411 117.35985 32921 ft 481 kts 133°
2026-05-05 14:02 19.35954 117.41102 32919 ft 481 kts 133°
2026-05-05 14:02 19.31520 117.46188 32918 ft 481 kts 133°
2026-05-05 14:03 19.27118 117.51234 32918 ft 481 kts 133°
2026-05-05 14:03 19.22677 117.56319 32918 ft 481 kts 133°
2026-05-05 14:04 19.18167 117.61481 32918 ft 481 kts 133°
2026-05-05 14:04 19.13679 117.66617 32918 ft 481 kts 133°
2026-05-05 14:05 19.09199 117.71763 32918 ft 481 kts 133°
2026-05-05 14:05 19.04699 117.76906 32918 ft 481 kts 133°
2026-05-05 14:06 19.00185 117.82052 32917 ft 482 kts 133°
2026-05-05 14:06 18.95648 117.87221 32917 ft 484 kts 133°
2026-05-05 14:07 18.91118 117.92379 32917 ft 487 kts 133°
2026-05-05 14:07 18.86528 117.97580 32917 ft 489 kts 133°
2026-05-05 14:08 18.81970 118.02730 32918 ft 490 kts 133°
2026-05-05 14:08 18.77398 118.07908 32918 ft 490 kts 133°
2026-05-05 14:09 18.72765 118.13158 32918 ft 490 kts 132°
2026-05-05 14:09 18.68149 118.18388 32918 ft 490 kts 132°
2026-05-05 14:10 18.63522 118.23628 32918 ft 490 kts 132°
2026-05-05 14:10 18.58915 118.28838 32918 ft 490 kts 132°
2026-05-05 14:11 18.54279 118.34079 32918 ft 490 kts 132°
2026-05-05 14:11 18.49664 118.39291 32918 ft 490 kts 132°
2026-05-05 14:12 18.45042 118.44506 32918 ft 490 kts 132°
2026-05-05 14:12 18.40422 118.49715 32918 ft 490 kts 132°
2026-05-05 14:13 18.35791 118.54932 32918 ft 490 kts 132°
2026-05-05 14:13 18.31158 118.60148 32918 ft 490 kts 132°
2026-05-05 14:14 18.26635 118.65234 32918 ft 490 kts 133°
2026-05-05 14:14 18.21986 118.70486 32918 ft 490 kts 133°
2026-05-05 14:15 18.17343 118.75717 32918 ft 490 kts 133°
2026-05-05 14:15 18.12696 118.80931 32918 ft 490 kts 133°
2026-05-05 14:16 18.08094 118.86085 32918 ft 488 kts 133°
2026-05-05 14:16 18.03350 118.91133 32919 ft 487 kts 136°
2026-05-05 14:17 17.98232 118.95658 32919 ft 486 kts 141°
2026-05-05 14:17 17.92648 118.99683 32919 ft 487 kts 147°
2026-05-05 14:18 17.86844 119.03137 32919 ft 487 kts 149°
2026-05-05 14:18 17.80918 119.06541 32918 ft 487 kts 149°
2026-05-05 14:19 17.75006 119.09950 32918 ft 486 kts 149°
2026-05-05 14:19 17.69124 119.13348 32918 ft 486 kts 149°
2026-05-05 14:20 17.63192 119.16778 32918 ft 486 kts 149°
2026-05-05 14:20 17.57289 119.20188 32918 ft 486 kts 149°
2026-05-05 14:21 17.51358 119.23614 32918 ft 486 kts 149°
2026-05-05 14:21 17.45471 119.27010 32918 ft 486 kts 149°
2026-05-05 14:22 17.39564 119.30418 32918 ft 486 kts 149°
2026-05-05 14:22 17.33657 119.33823 32918 ft 486 kts 149°
2026-05-05 14:23 17.27806 119.37193 32918 ft 486 kts 149°
2026-05-05 14:23 17.21909 119.40585 32918 ft 486 kts 149°
2026-05-05 14:24 17.16010 119.43977 32918 ft 486 kts 149°
2026-05-05 14:24 17.10129 119.47356 32918 ft 486 kts 149°
2026-05-05 14:25 17.04205 119.50758 32917 ft 487 kts 149°
2026-05-05 14:25 16.98248 119.54177 32917 ft 489 kts 149°
2026-05-05 14:26 16.92292 119.57591 32918 ft 490 kts 149°
2026-05-05 14:26 16.86546 119.60874 32918 ft 491 kts 149°
2026-05-05 14:27 16.80539 119.64293 32918 ft 491 kts 149°
2026-05-05 14:27 16.74664 119.67664 32919 ft 491 kts 149°
2026-05-05 14:28 16.68798 119.71040 32922 ft 491 kts 149°
2026-05-05 14:28 16.62884 119.74429 32929 ft 491 kts 149°
2026-05-05 14:29 16.57003 119.77790 32935 ft 491 kts 149°
2026-05-05 14:29 16.51061 119.81180 32940 ft 491 kts 149°
2026-05-05 14:30 16.45101 119.84577 32942 ft 491 kts 149°
2026-05-05 14:30 16.39176 119.87952 32944 ft 491 kts 149°
2026-05-05 14:31 16.33247 119.91327 32944 ft 491 kts 149°
2026-05-05 14:31 16.27282 119.94720 32944 ft 491 kts 149°
2026-05-05 14:32 16.21372 119.98079 32906 ft 491 kts 149°
2026-05-05 14:32 16.18387 119.99775 32292 ft 495 kts 149°
2026-05-05 14:32 16.15397 120.01472 31358 ft 497 kts 149°
2026-05-05 14:33 16.12400 120.03172 30437 ft 499 kts 149°
2026-05-05 14:33 16.09352 120.04902 29459 ft 502 kts 149°
2026-05-05 14:33 16.06355 120.06602 28580 ft 502 kts 149°
2026-05-05 14:33 16.03342 120.08311 27950 ft 497 kts 149°
2026-05-05 14:34 16.00326 120.10020 27281 ft 493 kts 149°
2026-05-05 14:34 15.97346 120.11710 26556 ft 491 kts 149°
2026-05-05 14:34 15.94346 120.13409 25842 ft 488 kts 149°
2026-05-05 14:34 15.91394 120.15083 25103 ft 486 kts 149°
2026-05-05 14:35 15.88567 120.16682 24433 ft 484 kts 149°
2026-05-05 14:35 15.85638 120.18331 23761 ft 480 kts 149°
2026-05-05 14:35 15.82691 120.19991 23148 ft 475 kts 149°
2026-05-05 14:35 15.79836 120.21601 22596 ft 470 kts 149°
2026-05-05 14:36 15.76986 120.23211 22052 ft 465 kts 149°
2026-05-05 14:36 15.74193 120.24792 21521 ft 460 kts 149°
2026-05-05 14:36 15.71414 120.26363 20991 ft 456 kts 149°
2026-05-05 14:36 15.68719 120.27887 20482 ft 451 kts 149°
2026-05-05 14:37 15.65966 120.29442 19963 ft 447 kts 150°
2026-05-05 14:37 15.63254 120.30971 19454 ft 444 kts 150°
2026-05-05 14:37 15.60602 120.32468 18958 ft 440 kts 150°
2026-05-05 14:37 15.57929 120.33978 18460 ft 436 kts 150°
2026-05-05 14:38 15.55304 120.35458 17971 ft 433 kts 150°
2026-05-05 14:38 15.52700 120.36927 17488 ft 430 kts 150°
2026-05-05 14:38 15.50156 120.38362 17017 ft 427 kts 150°
2026-05-05 14:38 15.47581 120.39812 16542 ft 424 kts 150°
2026-05-05 14:39 15.44996 120.41268 16107 ft 427 kts 151°
2026-05-05 14:39 15.42323 120.42645 15946 ft 436 kts 155°
2026-05-05 14:39 15.39531 120.43838 15942 ft 438 kts 159°
2026-05-05 14:39 15.36641 120.44839 15942 ft 439 kts 162°
2026-05-05 14:40 15.33732 120.45760 15907 ft 437 kts 163°
2026-05-05 14:40 15.30878 120.46651 15514 ft 433 kts 163°
2026-05-05 14:40 15.28085 120.47526 14864 ft 432 kts 163°
2026-05-05 14:40 15.25236 120.48423 14231 ft 430 kts 163°
2026-05-05 14:41 15.22422 120.49313 13647 ft 426 kts 163°
2026-05-05 14:41 15.19638 120.50195 13071 ft 422 kts 163°
2026-05-05 14:41 15.16874 120.51073 12494 ft 419 kts 163°
2026-05-05 14:41 15.14128 120.51945 12016 ft 412 kts 164°
2026-05-05 14:42 15.11420 120.52804 11645 ft 404 kts 164°
2026-05-05 14:42 15.08693 120.53667 11394 ft 409 kts 164°
2026-05-05 14:42 15.06023 120.54514 11147 ft 408 kts 163°
2026-05-05 14:42 15.03336 120.55366 10899 ft 407 kts 163°
2026-05-05 14:43 15.00683 120.56209 10653 ft 405 kts 163°
2026-05-05 14:43 14.98032 120.57050 10406 ft 403 kts 163°
2026-05-05 14:43 14.95375 120.57891 10158 ft 400 kts 163°
2026-05-05 14:43 14.92736 120.58724 9931 ft 398 kts 163°
2026-05-05 14:44 14.90085 120.59560 9809 ft 395 kts 163°
2026-05-05 14:44 14.87525 120.60365 9584 ft 383 kts 163°
2026-05-05 14:44 14.85048 120.61144 9461 ft 368 kts 163°
2026-05-05 14:44 14.82647 120.61900 9336 ft 355 kts 163°
2026-05-05 14:45 14.80335 120.62630 9211 ft 343 kts 163°
2026-05-05 14:45 14.78113 120.63332 9086 ft 331 kts 163°
2026-05-05 14:45 14.75943 120.64019 8960 ft 320 kts 163°
2026-05-05 14:45 14.73855 120.64679 8834 ft 310 kts 163°
2026-05-05 14:46 14.71843 120.65318 8708 ft 301 kts 163°
2026-05-05 14:46 14.69848 120.65961 8584 ft 300 kts 163°
2026-05-05 14:46 14.67851 120.66603 8459 ft 299 kts 162°
2026-05-05 14:46 14.65870 120.67234 8282 ft 294 kts 163°
2026-05-05 14:47 14.63938 120.67845 8073 ft 288 kts 162°
2026-05-05 14:47 14.62069 120.68484 7864 ft 283 kts 158°
2026-05-05 14:47 14.60308 120.69329 7699 ft 275 kts 151°
2026-05-05 14:47 14.58658 120.70277 7577 ft 271 kts 149°
2026-05-05 14:48 14.57027 120.71248 7451 ft 271 kts 149°
2026-05-05 14:48 14.55399 120.72216 7328 ft 271 kts 149°
2026-05-05 14:48 14.53773 120.73167 7153 ft 267 kts 153°
2026-05-05 14:48 14.52018 120.73579 7007 ft 258 kts 188°
2026-05-05 14:49 14.50437 120.72872 7006 ft 246 kts 226°
2026-05-05 14:49 14.49479 120.71437 7016 ft 245 kts 244°
2026-05-05 14:49 14.48695 120.69859 7005 ft 243 kts 245°
2026-05-05 14:49 14.47908 120.68339 6995 ft 242 kts 237°
2026-05-05 14:50 14.46660 120.67207 6985 ft 243 kts 204°
2026-05-05 14:50 14.45018 120.66909 6964 ft 236 kts 172°
2026-05-05 14:50 14.43487 120.67421 6734 ft 232 kts 152°
2026-05-05 14:50 14.42072 120.68198 6468 ft 232 kts 148°
2026-05-05 14:51 14.40675 120.69028 6227 ft 231 kts 148°
2026-05-05 14:51 14.39290 120.69866 5980 ft 230 kts 148°
2026-05-05 14:51 14.38071 120.70869 5813 ft 220 kts 121°
2026-05-05 14:51 14.37546 120.72307 5535 ft 216 kts 95°
2026-05-05 14:52 14.37440 120.73843 5333 ft 211 kts 89°
2026-05-05 14:52 14.37420 120.75336 5165 ft 206 kts 88°
2026-05-05 14:52 14.37415 120.76794 4953 ft 204 kts 88°
2026-05-05 14:52 14.37561 120.78210 4787 ft 196 kts 67°
2026-05-05 14:53 14.38177 120.79439 4570 ft 193 kts 58°
2026-05-05 14:53 14.38890 120.80582 4319 ft 193 kts 57°
2026-05-05 14:53 14.39608 120.81738 4064 ft 193 kts 58°
2026-05-05 14:53 14.40300 120.82907 3844 ft 189 kts 58°
2026-05-05 14:54 14.40965 120.84069 3587 ft 185 kts 60°
2026-05-05 14:54 14.41600 120.85207 3339 ft 184 kts 61°
2026-05-05 14:54 14.42233 120.86357 3087 ft 181 kts 60°
2026-05-05 14:54 14.42842 120.87463 2842 ft 177 kts 62°
2026-05-05 14:55 14.43440 120.88554 2606 ft 173 kts 60°
2026-05-05 14:55 14.44023 120.89614 2375 ft 168 kts 60°
2026-05-05 14:55 14.44592 120.90646 2148 ft 163 kts 62°
2026-05-05 14:55 14.45139 120.91634 1926 ft 156 kts 63°
2026-05-05 14:56 14.45662 120.92577 1718 ft 145 kts 63°
2026-05-05 14:56 14.46148 120.93457 1532 ft 139 kts 61°
2026-05-05 14:56 14.46621 120.94308 1356 ft 139 kts 63°
2026-05-05 14:56 14.47106 120.95187 1183 ft 143 kts 62°
2026-05-05 14:57 14.47598 120.96075 994 ft 142 kts 62°
2026-05-05 14:57 14.48086 120.96953 806 ft 143 kts 63°
2026-05-05 14:57 14.48578 120.97841 620 ft 143 kts 62°
2026-05-05 14:57 14.49068 120.98721 430 ft 144 kts 63°
2026-05-05 14:58 14.49559 120.99608 247 ft 143 kts 62°
2026-05-05 14:58 14.50047 121.00491 94 ft 134 kts 60°
2026-05-05 14:58 14.50445 121.01210 89 ft 96 kts 60°
2026-05-05 14:58 14.50713 121.01693 89 ft 68 kts 57°
2026-05-05 14:59 14.50932 121.02050 89 ft 54 kts 65°
2026-05-05 14:59 14.51097 121.02379 89 ft 41 kts 60°
2026-05-05 14:59 14.51215 121.02543 89 ft 16 kts 16°
2026-05-05 14:59 14.51282 121.02525 89 ft 10 kts 326°
2026-05-05 15:00 14.51298 121.02459 89 ft 11 kts 251°
2026-05-05 15:00 14.51272 121.02405 89 ft 13 kts 236°
2026-05-05 15:00 14.51205 121.02283 89 ft 15 kts 240°
2026-05-05 15:00 14.51142 121.02171 89 ft 21 kts 240°
2026-05-05 15:01 14.51072 121.02041 89 ft 14 kts 250°
2026-05-05 15:01 14.51110 121.01949 89 ft 17 kts 312°
2026-05-05 15:01 14.51182 121.01874 89 ft 3 kts 315°
2026-05-05 15:01 14.51215 121.01840 89 ft 9 kts 315°
2026-05-05 15:02 14.51275 121.01778 89 ft 14 kts 314°
2026-05-05 15:02 14.51361 121.01688 89 ft 19 kts 315°
2026-05-05 15:02 14.51457 121.01590 89 ft 18 kts 315°
2026-05-05 15:02 14.51531 121.01511 89 ft 11 kts 314°
2026-05-05 15:03 14.51555 121.01505 89 ft 1 kts 19°
2026-05-05 15:03 14.51568 121.01517 89 ft 2 kts 44°
2026-05-05 15:03 14.51592 121.01541 89 ft 4 kts 44°
2026-05-05 15:03 14.51609 121.01558 89 ft 3 kts 44°
2026-05-05 15:04 14.51613 121.01562 89 ft 0 kts 44°